| time (UTC) | temp F | wind direction | speed MPH | gust MPH | rain 1hr in | rain 24hr in | rain mn in | humidity % | barometer mb |
| 20260509101048 | 43 | 144 | 1.0 | 8.0 | 0.00 | 0.00 | 0.00 | 79 | 1007.2 |
| 20260509100548 | 42 | 158 | 2.0 | 5.0 | 0.00 | 0.00 | 0.00 | 79 | 1007.2 |
| 20260509100047 | 42 | 163 | 2.0 | 3.0 | 0.00 | 0.00 | 0.00 | 79 | 1007.1 |
| 20260509095546 | 43 | 158 | 2.0 | 7.0 | 0.00 | 0.00 | 0.00 | 78 | 1007.1 |
| 20260509095047 | 43 | 163 | 1.0 | 7.0 | 0.00 | 0.00 | 0.00 | 78 | 1007.1 |
| 20260509094546 | 43 | 146 | 1.0 | 5.0 | 0.00 | 0.00 | 0.00 | 78 | 1007.1 |
| 20260509094045 | 43 | 155 | 1.0 | 5.0 | 0.00 | 0.00 | 0.00 | 77 | 1007.1 |
| 20260509093545 | 43 | 150 | 1.0 | 5.0 | 0.00 | 0.00 | 0.00 | 77 | 1007.1 |
| 20260509093045 | 43 | 142 | 1.0 | 5.0 | 0.00 | 0.00 | 0.00 | 76 | 1007.1 |
| 20260509092544 | 43 | 159 | 2.0 | 3.0 | 0.00 | 0.00 | 0.00 | 76 | 1007.1 |
| 20260509092044 | 43 | 98 | 1.0 | 3.0 | 0.00 | 0.00 | 0.00 | 76 | 1007.2 |
| 20260509091545 | 43 | 98 | 1.0 | 3.0 | 0.00 | 0.00 | 0.00 | 76 | 1007.1 |
| 20260509091044 | 43 | 98 | 0.0 | 3.0 | 0.00 | 0.00 | 0.00 | 76 | 1007.1 |
| 20260509090544 | 43 | 98 | 0.0 | 2.0 | 0.00 | 0.00 | 0.00 | 76 | 1007.2 |
| 20260509090044 | 43 | 98 | 0.0 | 3.0 | 0.00 | 0.00 | 0.00 | 76 | 1007.2 |
| 20260509085542 | 43 | 98 | 1.0 | 3.0 | 0.00 | 0.00 | 0.00 | 76 | 1007.3 |
| 20260509085042 | 43 | 98 | 1.0 | 2.0 | 0.00 | 0.00 | 0.00 | 76 | 1007.3 |
| 20260509084546 | 43 | 98 | 1.0 | 3.0 | 0.00 | 0.00 | 0.00 | 76 | 1007.5 |
| 20260509084043 | 43 | 98 | 1.0 | 3.0 | 0.00 | 0.00 | 0.00 | 76 | 1007.6 |
| 20260509083539 | 43 | 98 | 1.0 | 3.0 | 0.00 | 0.00 | 0.00 | 76 | 1007.7 |
| 20260509083039 | 43 | 98 | 1.0 | 3.0 | 0.00 | 0.00 | 0.00 | 76 | 1007.7 |
| 20260509082538 | 43 | 49 | 0.0 | 2.0 | 0.00 | 0.00 | 0.00 | 76 | 1007.8 |
| 20260509082039 | 43 | 49 | 1.0 | 2.0 | 0.00 | 0.00 | 0.00 | 76 | 1007.7 |
| 20260509081542 | 43 | 49 | 0.0 | 3.0 | 0.00 | 0.00 | 0.00 | 77 | 1007.8 |
| 20260509081037 | 43 | 49 | 1.0 | 3.0 | 0.00 | 0.00 | 0.00 | 77 | 1007.8 |
| 20260509080537 | 42 | 49 | 1.0 | 2.0 | 0.00 | 0.00 | 0.00 | 77 | 1007.8 |
| 20260509080038 | 42 | 49 | 0.0 | 2.0 | 0.00 | 0.00 | 0.00 | 77 | 1007.9 |
| 20260509075537 | 42 | 49 | 0.0 | 2.0 | 0.00 | 0.00 | 0.00 | 77 | 1007.9 |
| 20260509075037 | 43 | 49 | 0.0 | 1.0 | 0.00 | 0.00 | 0.00 | 77 | 1008.0 |
| 20260509074544 | 43 | 49 | 0.0 | 1.0 | 0.00 | 0.00 | 0.00 | 76 | 1008.1 |
| 20260509074035 | 43 | 49 | 0.0 | 0.0 | 0.00 | 0.00 | 0.00 | 76 | 1008.2 |
| 20260509073535 | 43 | 49 | 0.0 | 0.0 | 0.00 | 0.00 | 0.00 | 76 | 1008.2 |
| 20260509073034 | 43 | 49 | 0.0 | 2.0 | 0.00 | 0.00 | 0.00 | 75 | 1008.2 |
| 20260509072534 | 43 | 49 | 0.0 | 2.0 | 0.00 | 0.00 | 0.00 | 76 | 1008.2 |
| 20260509072035 | 43 | 49 | 0.0 | 2.0 | 0.00 | 0.00 | 0.00 | 75 | 1008.2 |
| 20260509071534 | 43 | 49 | 0.0 | 2.0 | 0.00 | 0.00 | 0.00 | 75 | 1008.2 |
| 20260509071033 | 43 | 49 | 0.0 | 2.0 | 0.00 | 0.00 | 0.00 | 75 | 1008.4 |
| 20260509070531 | 43 | 49 | 0.0 | 2.0 | 0.00 | 0.00 | 0.00 | 75 | 1008.4 |
| 20260509070031 | 43 | 49 | 1.0 | 3.0 | 0.00 | 0.00 | 0.00 | 75 | 1008.5 |
| 20260509065530 | 43 | 49 | 1.0 | 3.0 | 0.00 | 0.00 | 0.00 | 76 | 1008.4 |
| 20260509065032 | 43 | 49 | 1.0 | 3.0 | 0.00 | 0.00 | 0.00 | 76 | 1008.4 |
| 20260509064534 | 43 | 49 | 1.0 | 3.0 | 0.00 | 0.00 | 0.00 | 76 | 1008.4 |
| 20260509064032 | 43 | 49 | 1.0 | 3.0 | 0.00 | 0.00 | 0.00 | 76 | 1008.5 |
| 20260509063529 | 43 | 49 | 1.0 | 3.0 | 0.00 | 0.00 | 0.00 | 77 | 1008.5 |
| 20260509063029 | 43 | 49 | 1.0 | 3.0 | 0.00 | 0.00 | 0.00 | 77 | 1008.7 |
| 20260509062529 | 43 | 49 | 1.0 | 3.0 | 0.00 | 0.00 | 0.00 | 77 | 1008.7 |
| 20260509062029 | 43 | 49 | 1.0 | 3.0 | 0.00 | 0.00 | 0.00 | 77 | 1008.7 |
| 20260509061525 | 43 | 49 | 1.0 | 3.0 | 0.00 | 0.00 | 0.00 | 78 | 1008.8 |
| 20260509061032 | 43 | 49 | 1.0 | 3.0 | 0.00 | 0.00 | 0.00 | 77 | 1008.9 |
| 20260509060524 | 43 | 49 | 1.0 | 3.0 | 0.00 | 0.00 | 0.00 | 78 | 1008.9 |
| 20260509060026 | 43 | 49 | 1.0 | 3.0 | 0.00 | 0.00 | 0.00 | 77 | 1009.0 |
| 20260509055525 | 43 | 49 | 1.0 | 3.0 | 0.00 | 0.01 | 0.00 | 77 | 1009.1 |
| 20260509055024 | 43 | 49 | 1.0 | 3.0 | 0.00 | 0.01 | 0.00 | 77 | 1009.1 |
| 20260509054524 | 43 | 49 | 1.0 | 3.0 | 0.00 | 0.01 | 0.00 | 77 | 1009.2 |
| 20260509054022 | 43 | 49 | 1.0 | 3.0 | 0.00 | 0.01 | 0.00 | 77 | 1009.2 |
| 20260509053522 | 43 | 49 | 1.0 | 3.0 | 0.00 | 0.01 | 0.00 | 77 | 1009.2 |
| 20260509053022 | 43 | 49 | 1.0 | 3.0 | 0.00 | 0.01 | 0.00 | 77 | 1009.3 |
| 20260509052520 | 43 | 49 | 1.0 | 3.0 | 0.00 | 0.01 | 0.00 | 77 | 1009.4 |
| 20260509052020 | 43 | 49 | 1.0 | 3.0 | 0.00 | 0.01 | 0.00 | 77 | 1009.5 |
| 20260509051520 | 43 | 49 | 1.0 | 3.0 | 0.00 | 0.01 | 0.00 | 78 | 1009.6 |
| 20260509051018 | 43 | 49 | 1.0 | 3.0 | 0.00 | 0.01 | 0.00 | 78 | 1009.4 |
| 20260509050517 | 42 | 49 | 1.0 | 2.0 | 0.00 | 0.01 | 0.00 | 79 | 1009.6 |
| 20260509050017 | 42 | 49 | 1.0 | 2.0 | 0.00 | 0.01 | 0.00 | 79 | 1009.6 |
| 20260509045521 | 42 | 49 | 1.0 | 2.0 | 0.00 | 0.02 | 0.00 | 79 | 1009.6 |
| 20260509045015 | 42 | 49 | 1.0 | 2.0 | 0.00 | 0.02 | 0.00 | 80 | 1009.6 |
| 20260509044515 | 42 | 49 | 1.0 | 2.0 | 0.00 | 0.02 | 0.00 | 80 | 1009.7 |
| 20260509044020 | 42 | 49 | 0.0 | 2.0 | 0.00 | 0.02 | 0.00 | 80 | 1009.7 |
| 20260509043513 | 42 | 49 | 1.0 | 2.0 | 0.00 | 0.02 | 0.00 | 81 | 1009.8 |
| 20260509043012 | 42 | 49 | 1.0 | 2.0 | 0.00 | 0.02 | 0.00 | 81 | 1009.7 |
| 20260509042514 | 41 | 49 | 0.0 | 2.0 | 0.00 | 0.02 | 0.00 | 82 | 1009.8 |
| 20260509042014 | 41 | 49 | 1.0 | 2.0 | 0.00 | 0.02 | 0.00 | 82 | 1009.8 |
| 20260509041510 | 41 | 49 | 1.0 | 2.0 | 0.00 | 0.02 | 0.00 | 83 | 1009.9 |
| 20260509041009 | 41 | 49 | 0.0 | 2.0 | 0.00 | 0.02 | 0.00 | 83 | 1010.0 |
| 20260509040509 | 41 | 49 | 0.0 | 2.0 | 0.00 | 0.02 | 0.00 | 83 | 1009.9 |
| 20260509040008 | 41 | 49 | 0.0 | 2.0 | 0.00 | 0.02 | 0.00 | 83 | 1010.0 |
| 20260509035507 | 41 | 49 | 1.0 | 2.0 | 0.00 | 0.03 | 0.02 | 83 | 1009.9 |
| 20260509035008 | 41 | 49 | 0.0 | 2.0 | 0.00 | 0.03 | 0.02 | 83 | 1009.9 |
| 20260509034507 | 41 | 49 | 0.0 | 2.0 | 0.00 | 0.03 | 0.02 | 83 | 1009.9 |
| 20260509034007 | 41 | 49 | 0.0 | 0.0 | 0.00 | 0.03 | 0.02 | 83 | 1009.9 |
| 20260509033507 | 41 | 49 | 0.0 | 2.0 | 0.00 | 0.03 | 0.02 | 83 | 1010.0 |
| 20260509033007 | 41 | 49 | 0.0 | 2.0 | 0.00 | 0.03 | 0.02 | 83 | 1009.9 |
| 20260509032506 | 41 | 49 | 0.0 | 2.0 | 0.00 | 0.03 | 0.02 | 82 | 1010.0 |
| 20260509032005 | 41 | 49 | 1.0 | 2.0 | 0.00 | 0.03 | 0.02 | 83 | 1010.1 |
| 20260509031505 | 41 | 49 | 1.0 | 2.0 | 0.00 | 0.03 | 0.02 | 83 | 1010.0 |
| 20260509031007 | 41 | 49 | 1.0 | 2.0 | 0.00 | 0.03 | 0.02 | 83 | 1010.0 |
| 20260509030508 | 41 | 49 | 0.0 | 2.0 | 0.00 | 0.03 | 0.02 | 84 | 1010.1 |
| 20260509030006 | 41 | 49 | 1.0 | 2.0 | 0.00 | 0.03 | 0.02 | 84 | 1010.1 |
| 20260509025506 | 41 | 49 | 0.0 | 2.0 | 0.00 | 0.03 | 0.02 | 83 | 1010.1 |
| 20260509025006 | 41 | 49 | 1.0 | 2.0 | 0.00 | 0.03 | 0.02 | 83 | 1010.2 |
| 20260509024507 | 41 | 49 | 0.0 | 2.0 | 0.00 | 0.03 | 0.02 | 83 | 1010.1 |
| 20260509024005 | 42 | 49 | 1.0 | 2.0 | 0.00 | 0.03 | 0.02 | 83 | 1010.1 |
| 20260509023505 | 42 | 49 | 1.0 | 2.0 | 0.00 | 0.03 | 0.02 | 83 | 1010.1 |
| 20260509023004 | 42 | 49 | 0.0 | 2.0 | 0.00 | 0.03 | 0.02 | 83 | 1010.1 |
| 20260509022504 | 42 | 49 | 0.0 | 2.0 | 0.00 | 0.03 | 0.02 | 83 | 1010.2 |
| 20260509022005 | 42 | 49 | 0.0 | 2.0 | 0.00 | 0.03 | 0.02 | 83 | 1010.2 |
| 20260509021504 | 42 | 49 | 1.0 | 2.0 | 0.00 | 0.03 | 0.02 | 83 | 1010.1 |
| 20260509021004 | 42 | 49 | 0.0 | 2.0 | 0.00 | 0.03 | 0.02 | 83 | 1010.1 |
| 20260509020505 | 42 | 49 | 1.0 | 2.0 | 0.00 | 0.03 | 0.02 | 82 | 1010.2 |
| 20260509020007 | 42 | 49 | 1.0 | 2.0 | 0.00 | 0.03 | 0.02 | 82 | 1010.3 |
| 20260509015503 | 43 | 49 | 1.0 | 2.0 | 0.00 | 0.03 | 0.02 | 81 | 1010.2 |
| 20260509015002 | 43 | 49 | 1.0 | 2.0 | 0.00 | 0.03 | 0.02 | 81 | 1010.2 |
| 20260509014506 | 43 | 49 | 1.0 | 2.0 | 0.00 | 0.03 | 0.02 | 79 | 1010.2 |
| 20260509014003 | 43 | 49 | 0.0 | 2.0 | 0.00 | 0.03 | 0.02 | 79 | 1010.3 |
| 20260509013503 | 44 | 49 | 1.0 | 2.0 | 0.00 | 0.03 | 0.02 | 78 | 1010.3 |
| 20260509013008 | 44 | 49 | 1.0 | 2.0 | 0.00 | 0.03 | 0.02 | 78 | 1010.2 |
| 20260509012502 | 44 | 49 | 0.0 | 0.0 | 0.00 | 0.03 | 0.02 | 78 | 1010.1 |
| 20260509012003 | 44 | 49 | 0.0 | 0.0 | 0.00 | 0.03 | 0.02 | 78 | 1010.2 |
| 20260509011502 | 45 | 49 | 0.0 | 0.0 | 0.00 | 0.03 | 0.02 | 77 | 1010.0 |
| 20260509011001 | 45 | 49 | 0.0 | 0.0 | 0.00 | 0.03 | 0.02 | 76 | 1009.9 |
| 20260509010501 | 45 | 49 | 0.0 | 0.0 | 0.00 | 0.03 | 0.02 | 76 | 1009.8 |
| 20260509010002 | 46 | 49 | 0.0 | 0.0 | 0.00 | 0.03 | 0.02 | 75 | 1009.7 |
| 20260509005501 | 46 | 49 | 0.0 | 0.0 | 0.00 | 0.03 | 0.02 | 74 | 1009.7 |
| 20260509005001 | 46 | 49 | 0.0 | 0.0 | 0.00 | 0.03 | 0.02 | 73 | 1009.6 |
| 20260509004504 | 47 | 49 | 0.0 | 0.0 | 0.00 | 0.03 | 0.02 | 71 | 1009.6 |
| 20260509004001 | 47 | 49 | 0.0 | 0.0 | 0.00 | 0.03 | 0.02 | 71 | 1009.5 |
| 20260509003501 | 48 | 49 | 0.0 | 0.0 | 0.00 | 0.03 | 0.02 | 69 | 1009.6 |
| 20260509003001 | 48 | 49 | 0.0 | 0.0 | 0.00 | 0.03 | 0.02 | 69 | 1009.5 |
| 20260509002603 | 48 | 49 | 0.0 | 0.0 | 0.00 | 0.03 | 0.02 | 67 | 1009.5 |
| 20260509002100 | 49 | 49 | 0.0 | 0.0 | 0.00 | 0.03 | 0.02 | 67 | 1009.5 |
| 20260509001600 | 49 | 49 | 0.0 | 0.0 | 0.00 | 0.03 | 0.02 | 69 | 1009.5 |
| 20260509001100 | 50 | 49 | 0.0 | 0.0 | 0.00 | 0.03 | 0.02 | 65 | 1009.4 |
| 20260509000602 | 50 | 49 | 0.0 | 0.0 | 0.00 | 0.03 | 0.02 | 63 | 1009.4 |
| 20260509000122 | 50 | 49 | 0.0 | 0.0 | 0.00 | 0.03 | 0.02 | 63 | 1009.4 |
| 20260508235600 | 50 | 49 | 0.0 | 0.0 | 0.00 | 0.03 | 0.02 | 63 | 1009.4 |
| 20260508235100 | 50 | 49 | 0.0 | 0.0 | 0.00 | 0.03 | 0.02 | 62 | 1009.4 |
| 20260508234559 | 50 | 49 | 0.0 | 0.0 | 0.00 | 0.03 | 0.02 | 60 | 1009.3 |
| 20260508234102 | 50 | 49 | 0.0 | 0.0 | 0.00 | 0.03 | 0.02 | 63 | 1009.3 |
| 20260508233559 | 50 | 49 | 0.0 | 0.0 | 0.00 | 0.03 | 0.02 | 62 | 1009.3 |
| 20260508233119 | 50 | 49 | 0.0 | 2.0 | 0.00 | 0.03 | 0.02 | 62 | 1009.2 |
| 20260508232557 | 50 | 49 | 0.0 | 2.0 | 0.00 | 0.03 | 0.02 | 64 | 1009.2 |
| 20260508232057 | 51 | 49 | 1.0 | 2.0 | 0.00 | 0.03 | 0.02 | 63 | 1009.3 |
| 20260508231557 | 51 | 49 | 1.0 | 2.0 | 0.00 | 0.03 | 0.02 | 61 | 1009.2 |
| 20260508231057 | 51 | 49 | 0.0 | 3.0 | 0.00 | 0.03 | 0.02 | 63 | 1009.3 |
| 20260508230556 | 51 | 49 | 2.0 | 3.0 | 0.00 | 0.03 | 0.02 | 68 | 1009.3 |
| 20260508230059 | 51 | 49 | 0.0 | 3.0 | 0.00 | 0.03 | 0.02 | 63 | 1009.3 |
| 20260508225555 | 51 | 49 | 0.0 | 3.0 | 0.00 | 0.03 | 0.02 | 65 | 1009.3 |
| 20260508225055 | 50 | 49 | 2.0 | 3.0 | 0.00 | 0.03 | 0.02 | 69 | 1009.3 |
| 20260508224554 | 50 | 49 | 1.0 | 4.0 | 0.00 | 0.03 | 0.02 | 71 | 1009.4 |
| 20260508224053 | 50 | 49 | 1.0 | 4.0 | 0.00 | 0.03 | 0.02 | 73 | 1009.3 |
| 20260508223558 | 50 | 49 | 2.0 | 4.0 | 0.00 | 0.03 | 0.02 | 78 | 1009.3 |
| 20260508223053 | 50 | 49 | 2.0 | 4.0 | 0.00 | 0.03 | 0.02 | 78 | 1009.2 |
| 20260508222552 | 50 | 49 | 2.0 | 4.0 | 0.00 | 0.03 | 0.02 | 80 | 1009.3 |
| 20260508222051 | 50 | 49 | 3.0 | 5.0 | 0.00 | 0.03 | 0.02 | 79 | 1009.3 |
| 20260508221551 | 50 | 50 | 3.0 | 7.0 | 0.00 | 0.03 | 0.02 | 79 | 1009.4 |
| 20260508221050 | 50 | 46 | 5.0 | 7.0 | 0.00 | 0.03 | 0.02 | 77 | 1009.5 |
| 20260508220550 | 50 | 50 | 3.0 | 6.0 | 0.00 | 0.03 | 0.02 | 77 | 1009.6 |
| 20260508220050 | 51 | 50 | 3.0 | 5.0 | 0.00 | 0.03 | 0.02 | 74 | 1009.6 |
| 20260508215549 | 51 | 50 | 2.0 | 5.0 | 0.00 | 0.03 | 0.02 | 76 | 1009.7 |
| 20260508215049 | 51 | 50 | 2.0 | 5.0 | 0.00 | 0.03 | 0.02 | 75 | 1009.7 |
| 20260508214549 | 51 | 50 | 2.0 | 5.0 | 0.00 | 0.03 | 0.02 | 75 | 1009.6 |
| 20260508214048 | 51 | 46 | 3.0 | 5.0 | 0.00 | 0.03 | 0.02 | 71 | 1009.6 |
| 20260508213547 | 51 | 51 | 3.0 | 5.0 | 0.00 | 0.03 | 0.02 | 72 | 1009.6 |
| 20260508213046 | 51 | 43 | 4.0 | 5.0 | 0.00 | 0.03 | 0.02 | 71 | 1009.7 |
| 20260508212545 | 51 | 58 | 2.0 | 5.0 | 0.00 | 0.03 | 0.02 | 75 | 1009.6 |
| 20260508212044 | 50 | 47 | 3.0 | 7.0 | 0.00 | 0.03 | 0.02 | 74 | 1009.6 |
| 20260508211542 | 49 | 51 | 4.0 | 7.0 | 0.00 | 0.03 | 0.02 | 73 | 1009.6 |
| 20260508211044 | 50 | 40 | 4.0 | 6.0 | 0.00 | 0.03 | 0.02 | 72 | 1009.6 |
| 20260508210542 | 50 | 45 | 3.0 | 5.0 | 0.00 | 0.03 | 0.02 | 74 | 1009.7 |
| 20260508210041 | 49 | 46 | 3.0 | 5.0 | 0.00 | 0.03 | 0.02 | 74 | 1009.7 |
| 20260508205540 | 49 | 51 | 3.0 | 5.0 | 0.00 | 0.03 | 0.02 | 77 | 1009.8 |
| 20260508205039 | 49 | 63 | 3.0 | 5.0 | 0.00 | 0.03 | 0.02 | 77 | 1009.9 |
| 20260508204540 | 49 | 60 | 3.0 | 5.0 | 0.00 | 0.03 | 0.02 | 78 | 1010.1 |
| 20260508204037 | 48 | 60 | 3.0 | 5.0 | 0.00 | 0.03 | 0.02 | 79 | 1010.1 |
| 20260508203539 | 48 | 59 | 4.0 | 5.0 | 0.00 | 0.03 | 0.02 | 78 | 1010.1 |
| 20260508203039 | 48 | 61 | 3.0 | 7.0 | 0.00 | 0.03 | 0.02 | 79 | 1010.2 |
| 20260508202534 | 48 | 51 | 4.0 | 7.0 | 0.00 | 0.03 | 0.02 | 78 | 1010.3 |
| 20260508202036 | 48 | 55 | 3.0 | 7.0 | 0.00 | 0.03 | 0.02 | 77 | 1010.4 |
| 20260508201537 | 48 | 59 | 4.0 | 7.0 | 0.00 | 0.03 | 0.02 | 78 | 1010.4 |
| 20260508201034 | 48 | 44 | 3.0 | 6.0 | 0.00 | 0.03 | 0.02 | 76 | 1010.4 |
| 20260508200534 | 48 | 61 | 3.0 | 6.0 | 0.00 | 0.03 | 0.02 | 76 | 1010.4 |
| 20260508200033 | 48 | 60 | 3.0 | 6.0 | 0.00 | 0.03 | 0.02 | 78 | 1010.4 |
| 20260508195531 | 47 | 48 | 3.0 | 6.0 | 0.00 | 0.03 | 0.02 | 77 | 1010.5 |
| 20260508195031 | 47 | 61 | 3.0 | 5.0 | 0.00 | 0.03 | 0.02 | 77 | 1010.5 |
| 20260508194535 | 47 | 42 | 4.0 | 6.0 | 0.00 | 0.03 | 0.02 | 78 | 1010.6 |
| 20260508194029 | 47 | 48 | 3.0 | 6.0 | 0.00 | 0.03 | 0.02 | 78 | 1010.7 |
| 20260508193527 | 46 | 57 | 3.0 | 9.0 | 0.00 | 0.03 | 0.02 | 79 | 1010.7 |
| 20260508193028 | 45 | 43 | 3.0 | 9.0 | 0.00 | 0.03 | 0.02 | 80 | 1010.7 |
| 20260508192526 | 45 | 36 | 5.0 | 9.0 | 0.00 | 0.03 | 0.02 | 78 | 1010.9 |
| 20260508192025 | 45 | 42 | 5.0 | 7.0 | 0.00 | 0.03 | 0.02 | 79 | 1010.9 |
| 20260508191528 | 44 | 46 | 5.0 | 9.0 | 0.00 | 0.03 | 0.02 | 79 | 1011.0 |
| 20260508191025 | 44 | 42 | 5.0 | 9.0 | 0.00 | 0.03 | 0.02 | 79 | 1010.9 |
| 20260508190525 | 44 | 47 | 5.0 | 7.0 | 0.00 | 0.03 | 0.02 | 80 | 1010.9 |
| 20260508190025 | 44 | 44 | 6.0 | 7.0 | 0.00 | 0.03 | 0.02 | 80 | 1010.9 |
| 20260508185524 | 44 | 41 | 5.0 | 9.0 | 0.00 | 0.03 | 0.02 | 81 | 1010.8 |
| 20260508185029 | 44 | 42 | 5.0 | 9.0 | 0.00 | 0.03 | 0.02 | 81 | 1010.9 |
| 20260508184525 | 44 | 40 | 6.0 | 9.0 | 0.00 | 0.03 | 0.02 | 83 | 1010.9 |
| 20260508184024 | 44 | 28 | 6.0 | 9.0 | 0.00 | 0.03 | 0.02 | 83 | 1010.9 |
| 20260508183527 | 44 | 28 | 6.0 | 9.0 | 0.00 | 0.03 | 0.02 | 85 | 1010.9 |
| 20260508183026 | 44 | 46 | 5.0 | 10.0 | 0.00 | 0.03 | 0.02 | 85 | 1011.0 |
| 20260508182523 | 44 | 29 | 7.0 | 10.0 | 0.00 | 0.03 | 0.02 | 85 | 1011.1 |
| 20260508182023 | 44 | 22 | 6.0 | 9.0 | 0.00 | 0.03 | 0.02 | 85 | 1011.1 |
| 20260508181623 | 44 | 26 | 7.0 | 9.0 | 0.00 | 0.03 | 0.02 | 83 | 1011.1 |
| 20260508181023 | 44 | 19 | 7.0 | 9.0 | 0.00 | 0.03 | 0.02 | 82 | 1011.0 |
| 20260508180523 | 45 | 17 | 6.0 | 8.0 | 0.00 | 0.03 | 0.02 | 82 | 1011.2 |
| 20260508180022 | 45 | 5 | 6.0 | 8.0 | 0.00 | 0.03 | 0.02 | 83 | 1011.1 |
| 20260508175523 | 45 | 360 | 6.0 | 8.0 | 0.00 | 0.03 | 0.02 | 84 | 1011.1 |
| 20260508175023 | 45 | 15 | 5.0 | 8.0 | 0.00 | 0.03 | 0.02 | 86 | 1011.1 |
| 20260508174523 | 45 | 34 | 5.0 | 8.0 | 0.00 | 0.03 | 0.02 | 85 | 1011.1 |
| 20260508174022 | 45 | 26 | 5.0 | 8.0 | 0.00 | 0.03 | 0.02 | 84 | 1011.2 |
| 20260508173523 | 45 | 33 | 4.0 | 6.0 | 0.00 | 0.03 | 0.02 | 85 | 1011.1 |
| 20260508173023 | 44 | 17 | 4.0 | 6.0 | 0.00 | 0.03 | 0.02 | 84 | 1011.3 |
| 20260508172525 | 45 | 16 | 4.0 | 6.0 | 0.00 | 0.03 | 0.02 | 84 | 1011.3 |
| 20260508172021 | 45 | 21 | 4.0 | 6.0 | 0.00 | 0.03 | 0.02 | 84 | 1011.2 |
| 20260508171521 | 45 | 11 | 3.0 | 6.0 | 0.00 | 0.03 | 0.02 | 84 | 1011.3 |
| 20260508171020 | 45 | 5 | 4.0 | 8.0 | 0.00 | 0.03 | 0.02 | 85 | 1011.4 |
| 20260508170520 | 45 | 13 | 5.0 | 8.0 | 0.00 | 0.03 | 0.02 | 83 | 1011.4 |
| 20260508170021 | 45 | 10 | 4.0 | 7.0 | 0.00 | 0.03 | 0.02 | 83 | 1011.4 |
| 20260508165520 | 45 | 333 | 5.0 | 8.0 | 0.00 | 0.03 | 0.02 | 83 | 1011.5 |
| 20260508165020 | 45 | 325 | 5.0 | 8.0 | 0.00 | 0.03 | 0.02 | 83 | 1011.6 |
| 20260508164520 | 45 | 344 | 4.0 | 6.0 | 0.00 | 0.03 | 0.02 | 83 | 1011.7 |
| 20260508164020 | 44 | 321 | 4.0 | 6.0 | 0.00 | 0.03 | 0.02 | 84 | 1011.7 |
| 20260508163520 | 44 | 315 | 3.0 | 8.0 | 0.00 | 0.03 | 0.02 | 86 | 1011.7 |
| 20260508163120 | 44 | 315 | 4.0 | 8.0 | 0.00 | 0.03 | 0.02 | 86 | 1011.8 |
| 20260508162520 | 44 | 309 | 6.0 | 9.0 | 0.00 | 0.03 | 0.02 | 86 | 1011.8 |
| 20260508162022 | 44 | 315 | 7.0 | 9.0 | 0.00 | 0.03 | 0.02 | 86 | 1011.9 |
| 20260508161519 | 44 | 315 | 6.0 | 10.0 | 0.00 | 0.03 | 0.02 | 85 | 1011.9 |
| 20260508161019 | 44 | 309 | 7.0 | 10.0 | 0.00 | 0.03 | 0.02 | 85 | 1011.9 |
| 20260508160517 | 44 | 308 | 6.0 | 10.0 | 0.00 | 0.03 | 0.02 | 85 | 1012.0 |
| 20260508160018 | 45 | 336 | 7.0 | 10.0 | 0.00 | 0.03 | 0.02 | 84 | 1011.9 |
| 20260508155518 | 45 | 332 | 5.0 | 9.0 | 0.00 | 0.03 | 0.02 | 83 | 1011.8 |
| 20260508155017 | 45 | 333 | 5.0 | 10.0 | 0.00 | 0.03 | 0.02 | 82 | 1011.8 |
| 20260508154538 | 45 | 327 | 6.0 | 10.0 | 0.00 | 0.03 | 0.02 | 82 | 1011.7 |
| 20260508154016 | 45 | 331 | 7.0 | 11.0 | 0.00 | 0.03 | 0.02 | 77 | 1011.8 |
| 20260508153515 | 45 | 294 | 9.0 | 11.0 | 0.00 | 0.03 | 0.02 | 75 | 1011.7 |
| 20260508153015 | 45 | 313 | 7.0 | 9.0 | 0.00 | 0.03 | 0.02 | 75 | 1011.8 |
| 20260508152515 | 45 | 333 | 5.0 | 10.0 | 0.00 | 0.03 | 0.02 | 78 | 1011.7 |
| 20260508152012 | 44 | 329 | 7.0 | 10.0 | 0.00 | 0.03 | 0.02 | 78 | 1011.8 |
| 20260508151515 | 44 | 331 | 5.0 | 8.0 | 0.00 | 0.03 | 0.02 | 78 | 1011.8 |
| 20260508151016 | 44 | 329 | 4.0 | 8.0 | 0.00 | 0.03 | 0.02 | 79 | 1011.7 |
| 20260508150513 | 44 | 313 | 5.0 | 8.0 | 0.00 | 0.03 | 0.02 | 80 | 1011.7 |
| 20260508150012 | 44 | 302 | 5.0 | 8.0 | 0.00 | 0.03 | 0.02 | 78 | 1011.7 |
| 20260508145513 | 44 | 306 | 5.0 | 8.0 | 0.00 | 0.03 | 0.02 | 79 | 1011.6 |
| 20260508145010 | 44 | 264 | 4.0 | 10.0 | 0.00 | 0.03 | 0.02 | 79 | 1011.7 |
| 20260508144509 | 44 | 201 | 4.0 | 10.0 | 0.00 | 0.03 | 0.02 | 81 | 1011.6 |
| 20260508144013 | 44 | 284 | 5.0 | 8.0 | 0.00 | 0.03 | 0.02 | 82 | 1011.7 |
| 20260508143509 | 44 | 237 | 3.0 | 7.0 | 0.00 | 0.03 | 0.02 | 82 | 1011.5 |
| 20260508143009 | 44 | 219 | 5.0 | 8.0 | 0.00 | 0.03 | 0.02 | 83 | 1011.6 |
| 20260508142507 | 44 | 232 | 5.0 | 8.0 | 0.00 | 0.03 | 0.02 | 83 | 1011.7 |
| 20260508142008 | 44 | 179 | 3.0 | 7.0 | 0.00 | 0.03 | 0.02 | 83 | 1011.6 |
| 20260508141506 | 44 | 215 | 2.0 | 11.0 | 0.00 | 0.03 | 0.02 | 83 | 1011.5 |
| 20260508141005 | 44 | 215 | 3.0 | 11.0 | 0.00 | 0.03 | 0.02 | 82 | 1011.6 |
| 20260508140505 | 44 | 253 | 6.0 | 11.0 | 0.00 | 0.03 | 0.02 | 82 | 1011.5 |
| 20260508140005 | 43 | 249 | 4.0 | 9.0 | 0.00 | 0.03 | 0.02 | 82 | 1011.5 |
| 20260508135509 | 43 | 249 | 6.0 | 10.0 | 0.00 | 0.03 | 0.02 | 81 | 1011.5 |
| 20260508135007 | 43 | 213 | 4.0 | 10.0 | 0.00 | 0.03 | 0.02 | 82 | 1011.6 |
| 20260508134508 | 43 | 238 | 5.0 | 12.0 | 0.00 | 0.03 | 0.02 | 82 | 1011.5 |
| 20260508134004 | 43 | 273 | 7.0 | 12.0 | 0.00 | 0.03 | 0.02 | 83 | 1011.6 |
| 20260508133506 | 43 | 239 | 7.0 | 11.0 | 0.00 | 0.03 | 0.02 | 85 | 1011.6 |
| 20260508133006 | 44 | 221 | 7.0 | 11.0 | 0.00 | 0.03 | 0.02 | 87 | 1011.5 |
| 20260508132501 | 43 | 243 | 7.0 | 11.0 | 0.00 | 0.03 | 0.02 | 88 | 1011.5 |
| 20260508132100 | 43 | 232 | 5.0 | 10.0 | 0.00 | 0.03 | 0.02 | 89 | 1011.5 |
| 20260508131612 | 43 | 267 | 6.0 | 9.0 | 0.00 | 0.03 | 0.02 | 88 | 1011.4 |
| 20260508131100 | 43 | 222 | 4.0 | 7.0 | 0.00 | 0.03 | 0.02 | 89 | 1011.4 |
| 20260508130602 | 43 | 241 | 4.0 | 7.0 | 0.00 | 0.03 | 0.02 | 91 | 1011.5 |
| 20260508130100 | 43 | 248 | 3.0 | 9.0 | 0.00 | 0.03 | 0.02 | 91 | 1011.5 |
| 20260508125559 | 43 | 244 | 6.0 | 9.0 | 0.00 | 0.03 | 0.02 | 90 | 1011.6 |
| 20260508125058 | 43 | 249 | 4.0 | 9.0 | 0.00 | 0.03 | 0.02 | 92 | 1011.5 |
| 20260508124603 | 43 | 238 | 5.0 | 9.0 | 0.00 | 0.03 | 0.02 | 92 | 1011.5 |
| 20260508124058 | 43 | 246 | 3.0 | 5.0 | 0.00 | 0.03 | 0.02 | 92 | 1011.5 |
| 20260508123557 | 42 | 224 | 2.0 | 5.0 | 0.00 | 0.03 | 0.02 | 92 | 1011.4 |
| 20260508123058 | 42 | 218 | 2.0 | 5.0 | 0.00 | 0.03 | 0.02 | 92 | 1011.3 |
| 20260508122658 | 42 | 235 | 3.0 | 5.0 | 0.00 | 0.03 | 0.02 | 92 | 1011.3 |
| 20260508122056 | 42 | 234 | 1.0 | 4.0 | 0.00 | 0.03 | 0.02 | 93 | 1011.3 |
| 20260508121556 | 42 | 190 | 2.0 | 5.0 | 0.00 | 0.03 | 0.02 | 93 | 1011.3 |
| 20260508121055 | 42 | 211 | 3.0 | 5.0 | 0.00 | 0.03 | 0.02 | 93 | 1011.3 |
| 20260508120554 | 42 | 221 | 2.0 | 5.0 | 0.00 | 0.03 | 0.02 | 93 | 1011.2 |
| 20260508120053 | 42 | 240 | 2.0 | 4.0 | 0.00 | 0.03 | 0.02 | 94 | 1011.2 |
| 20260508115553 | 42 | 167 | 2.0 | 3.0 | 0.00 | 0.03 | 0.02 | 94 | 1011.1 |
| 20260508115055 | 42 | 209 | 1.0 | 3.0 | 0.00 | 0.03 | 0.02 | 94 | 1010.9 |
| 20260508114552 | 41 | 169 | 1.0 | 3.0 | 0.00 | 0.03 | 0.02 | 94 | 1010.8 |
| 20260508114052 | 41 | 169 | 1.0 | 3.0 | 0.00 | 0.03 | 0.02 | 94 | 1010.8 |
| 20260508113551 | 41 | 169 | 1.0 | 3.0 | 0.00 | 0.03 | 0.02 | 94 | 1010.8 |
| 20260508113051 | 41 | 169 | 1.0 | 3.0 | 0.00 | 0.03 | 0.02 | 94 | 1010.6 |
| 20260508112549 | 41 | 161 | 1.0 | 2.0 | 0.00 | 0.03 | 0.02 | 94 | 1010.5 |
| 20260508112048 | 40 | 161 | 1.0 | 3.0 | 0.00 | 0.03 | 0.02 | 94 | 1010.5 |
| 20260508111552 | 40 | 161 | 1.0 | 4.0 | 0.00 | 0.03 | 0.02 | 94 | 1010.5 |
| 20260508111048 | 40 | 170 | 2.0 | 4.0 | 0.00 | 0.03 | 0.02 | 94 | 1010.6 |
| 20260508110548 | 40 | 179 | 2.0 | 4.0 | 0.00 | 0.03 | 0.02 | 94 | 1010.5 |
| 20260508110048 | 40 | 157 | 1.0 | 5.0 | 0.00 | 0.03 | 0.02 | 94 | 1010.3 |
| 20260508105551 | 40 | 157 | 0.0 | 5.0 | 0.00 | 0.03 | 0.02 | 94 | 1010.3 |
| 20260508105047 | 40 | 176 | 2.0 | 5.0 | 0.00 | 0.03 | 0.02 | 94 | 1010.5 |
| 20260508104545 | 40 | 165 | 1.0 | 2.0 | 0.00 | 0.03 | 0.02 | 94 | 1010.4 |
| 20260508104045 | 40 | 165 | 1.0 | 3.0 | 0.00 | 0.03 | 0.02 | 94 | 1010.4 |
| 20260508103545 | 40 | 165 | 1.0 | 3.0 | 0.00 | 0.03 | 0.02 | 94 | 1010.5 |
| 20260508103045 | 40 | 165 | 2.0 | 4.0 | 0.00 | 0.03 | 0.02 | 94 | 1010.4 |
| 20260508102543 | 40 | 165 | 1.0 | 4.0 | 0.00 | 0.03 | 0.02 | 94 | 1010.5 |
| 20260508102045 | 40 | 178 | 1.0 | 4.0 | 0.00 | 0.03 | 0.02 | 94 | 1010.5 |
| 20260508101543 | 39 | 179 | 3.0 | 5.0 | 0.00 | 0.03 | 0.02 | 94 | 1010.7 |